TimeAKDT,TemperatureF,Dew PointF,Humidity,Sea Level PressureIn,VisibilityMPH,Wind Direction,Wind SpeedMPH,Gust SpeedMPH,PrecipitationIn,Events,Conditions,WindDirDegrees,DateUTC
12:53 AM,50.0,39.9,68,29.59,10.0,NE,5.8,-,0.00,,Overcast,40,2012-09-12 08:53:00
1:53 AM,51.1,39.0,63,29.58,10.0,NNE,9.2,-,N/A,,Overcast,30,2012-09-12 09:53:00
2:53 AM,51.1,37.9,61,29.57,10.0,NNE,9.2,-,N/A,,Overcast,30,2012-09-12 10:53:00
3:53 AM,48.9,41.0,74,29.57,10.0,Calm,Calm,-,0.03,Rain,Light Rain,0,2012-09-12 11:53:00
4:53 AM,48.0,41.0,77,29.56,10.0,NNE,3.5,-,0.00,,Overcast,20,2012-09-12 12:53:00
5:53 AM,48.0,41.0,77,29.56,10.0,Calm,Calm,-,N/A,,Overcast,0,2012-09-12 13:53:00
6:53 AM,48.0,42.1,80,29.57,10.0,Calm,Calm,-,N/A,,Overcast,0,2012-09-12 14:53:00
7:53 AM,46.9,41.0,80,29.58,10.0,ENE,8.1,-,N/A,,Overcast,60,2012-09-12 15:53:00
8:53 AM,48.0,41.0,77,29.59,10.0,East,4.6,-,N/A,,Overcast,80,2012-09-12 16:53:00
9:53 AM,46.9,43.0,86,29.61,7.0,NE,3.5,-,0.04,Rain,Light Rain,50,2012-09-12 17:53:00
10:53 AM,48.0,43.0,83,29.62,9.0,Calm,Calm,-,0.02,Rain,Light Rain,0,2012-09-12 18:53:00
11:53 AM,48.0,43.0,83,29.63,10.0,SW,4.6,-,0.00,,Overcast,230,2012-09-12 19:53:00
12:53 PM,48.9,44.1,83,29.65,10.0,SW,6.9,-,0.00,,Overcast,230,2012-09-12 20:53:00
1:08 PM,50.0,44.6,82,29.65,10.0,SW,5.8,-,N/A,,Overcast,220,2012-09-12 21:08:00
1:41 PM,48.2,44.6,87,29.65,10.0,South,3.5,-,N/A,,Overcast,180,2012-09-12 21:41:00
1:53 PM,50.0,43.0,77,29.66,10.0,Calm,Calm,-,N/A,,Overcast,0,2012-09-12 21:53:00
2:01 PM,51.8,42.8,71,29.66,10.0,Calm,Calm,-,N/A,,Overcast,0,2012-09-12 22:01:00
2:53 PM,51.1,43.0,74,29.67,10.0,Calm,Calm,-,N/A,,Overcast,0,2012-09-12 22:53:00
3:53 PM,50.0,44.1,80,29.68,10.0,Variable,3.5,-,0.00,,Overcast,0,2012-09-12 23:53:00
4:51 PM,51.8,42.8,71,29.69,10.0,Calm,Calm,-,N/A,,Mostly Cloudy,0,2012-09-13 00:51:00
4:53 PM,52.0,43.0,71,29.69,10.0,Calm,Calm,-,N/A,,Mostly Cloudy,0,2012-09-13 00:53:00
5:53 PM,52.0,42.1,69,29.70,10.0,South,4.6,-,N/A,,Mostly Cloudy,190,2012-09-13 01:53:00
6:53 PM,51.1,42.1,71,29.72,10.0,Variable,5.8,-,N/A,,Mostly Cloudy,0,2012-09-13 02:53:00
7:53 PM,50.0,42.1,74,29.73,10.0,West,8.1,-,N/A,,Mostly Cloudy,260,2012-09-13 03:53:00
8:53 PM,50.0,42.1,74,29.75,10.0,Calm,Calm,-,N/A,,Overcast,0,2012-09-13 04:53:00
9:53 PM,50.0,42.1,74,29.76,10.0,Calm,Calm,-,N/A,,Overcast,0,2012-09-13 05:53:00
10:53 PM,46.9,42.1,83,29.77,10.0,Calm,Calm,-,N/A,,Overcast,0,2012-09-13 06:53:00
11:28 PM,46.4,42.8,87,29.77,10.0,Calm,Calm,-,N/A,,Overcast,0,2012-09-13 07:28:00
11:50 PM,48.2,42.8,82,29.78,10.0,Calm,Calm,-,N/A,,Overcast,0,2012-09-13 07:50:00
11:53 PM,48.0,42.1,80,29.78,10.0,Calm,Calm,-,N/A,,Overcast,0,2012-09-13 07:53:00